星链-34396 (STARLINK-34396)

导读 | 星芒AI

STARLINK-34396 是 SpaceX Starlink 项目中的一颗低轨通信卫星,属于第三代 Starlink 卫星(也称为 v1.5 或 Block V)。它于2023年发射,旨在为全球用户提供高速互联网服务。该卫星采用先进推进系统和激光通信技术,以提高网络效率和减少延迟。作为 Starlink 卫星群的一部分,STARLINK-34396 运行在约 550 公里的轨道高度,支持 SpaceX 建设全球宽带网络的长期目标。

基本信息
目录编号:
64436
目录名称:
STARLINK-34396
国际标识:
2025-129AA
轨道中心:
EARTH
卫星名称:
星链-34396
卫星全名:
星链-34396 (STARLINK-34396)
卫星状态:
在轨 (已飞行145 天)
发射日期:
2025-06-17 UTC
国别 :
美国 (US)
星等 :
--
轨道信息
数据来源 国际轨道数据
星历时间: 2025-11-08T23:31:02+0800
20小时前
查看轨道信息
半长轴: 6950.132km
偏心率: 0.0002994
轨道倾角: 70.002°
近地点辐角 269.294°
升交点赤经 19.744°
平近点角 90.787°
近地点: 569.916km
远地点: 574.078km
周期: 96.106分钟
每日圈数: 14.983499
详细信息
固有亮度:
5
最大亮度:
2.5
卫星平台:
Starlink V1.0
覆盖范围:
全球
运营商:
太空探索技术公司
运营商所在国:
美国
制造商(研发单位):
太空探索技术公司
制造商所在国:
美国
使用方式:
暂无
卫星简介
Starlink 计划是 SpaceX 推出的全球卫星互联网项目,通过发射低轨道卫星,为全球尤其是偏远地区提供高速、低延迟的互联网服务。自 2019 年起,Starlink 已部署数千颗卫星,旨在缩小全球数字鸿沟,推动互联网普及。该项目还为军事、航空等行业提供通信支持,带来广泛经济效益。
2D轨道图
3D轨道图
轨道高度分析图
轨道倾角分析图
轨道综合分析图
查看轨道综合分析图